COSMOS 2233

Satellite information

Favourite Embed

Satellite Type and Status

PAYLOADIN ORBIT

Key statistics

Satellite COSMOS 2233 at a glance.

Uptime

11995

Days in orbit

Revolutions

≈ 13.8

Per day

Orbit

LEO

Low Earth Orbit

Inclination

82.9

Latest

Satellite identification and parameters

Extended collection of information and parameters for COSMOS 2233.

Object identification

Identified? True

Debris? False

Object name: COSMOS 2233

International designator: 1993-008A

Object number (NORAD): 22487

Object ID (CCSDS): 22487

Country: COMMONWEALTH OF INDEPENDENT STATES (CIS)

Current information (Y/N): Y

RCS size: LARGE

Orbital parameters

Period: 104.65 minutes

Inclination: 82.9441 deg

SMA: 7356.172 km

Apoapsis: 1004.969 km

Periapsis: 951.106 km

RAAN: 321.3005 deg

Eccentricy: 0.00366104

Argument of periapsis: 278.7877 deg

Mean anomaly: 91.9567 deg

Mean motion: 13.76020528 rev/day

Mean motion (dot): 0.000001 rev/day2

B* drag term: 0.000087163441 1/REarth

Two-line elements (TLE)

Creation date: Dec. 12, 2025, 10:14 a.m.

Reference frame: TEME

Reference center: EARTH

Epoch: Dec. 12, 2025, 4:14 a.m. UTC

TLE line 0: 0 COSMOS 2233

TLE line 1: 1 22487U 93008A 25346.17696639 .00000100 00000-0 87163-4 0 9990

TLE line 2: 2 22487 82.9441 321.3005 0036610 278.7877 91.9567 13.76020528644307

Live tracking on map

Real-time ground track for satellite COSMOS 2233.

In-orbit conjunctions

A list of the most updated potential collisions computed for object COSMOS 2233.

Target Orbit TCA Probability of collision Miss distance Type
FENGYUN 1C DEB SSO 2024-11-14 03:03:06 0.0003022846 636.0 (m) DEBRIS

Associated space launch

Navigation satellite providing location information for the Tsiklon-B navigation system

COSMOS 2233 was lifted into orbit during the mission ‘Kosmos-3M | Parus 79’, on board a Kosmos-3M space rocket.

The launch took place on Feb. 9, 1993, 2:56 a.m. from 133/3 (133L).

For more information about the launch, click the button.

Launch to space Kosmos-3M | Parus 79
Kosmos-3M | Parus 79

Agency: N/A

Status: Launch Successful

Launch date: Feb. 9, 1993, 2:56 a.m. UTC

Rocket: Kosmos-3M

Launch pad: 133/3 (133L)

Location: Plesetsk Cosmodrome, Russian Federation

...

Latest news about this satellite

There are no fresh news available about this satellite. Check back as we update our databases every day.


Newsletter sign-up

Weekly statistics, charts and insights to help you stay on top of the space industry.